Location: Unspecified
(42.9300°N, 71.1866°W)
Time: 05:17:49
(UTC-04:00)

Envisat - Visible Passes

Search period start: 26 September 2017 00:00
Search period end: 06 October 2017 00:00
Orbit: 764 x 766 km, 98.2° (Epoch: 25 September)

Date Brightness Start Highest point End Pass type
(mag) Time Alt. Az. Time Alt. Az. Time Alt. Az.
26 Sep 3.7 19:44:02 17° ESE 19:47:13 34° ENE 19:51:47 10° N visible
26 Sep 4.6 21:24:15 23° SW 21:26:15 30° W 21:30:41 10° NW visible
27 Sep 4.5 19:07:41 10° E 19:10:53 17° ENE 19:14:06 10° NNE visible
27 Sep 3.3 20:47:16 35° S 20:49:23 65° W 20:54:26 10° NNW visible
28 Sep 3.0 20:10:18 30° SE 20:12:42 58° ENE 20:17:41 10° N visible
28 Sep 5.4 21:50:31 15° WSW 21:52:05 17° W 21:55:24 10° NW visible
29 Sep 3.9 19:33:19 17° ESE 19:36:13 28° ENE 19:40:29 10° N visible
29 Sep 4.2 21:13:32 30° SW 21:15:04 37° W 21:19:47 10° NNW visible
30 Sep 4.7 18:57:26 10° E 18:59:56 14° ENE 19:02:27 10° NNE visible
30 Sep 3.0 20:36:33 43° S 20:38:15 82° WSW 20:43:22 10° NNW visible
01 Oct 3.2 19:59:35 30° ESE 20:01:38 46° ENE 20:06:29 10° N visible
01 Oct 5.0 21:39:48 20° WSW 21:40:52 22° W 21:44:46 10° NW visible
02 Oct 4.2 19:22:37 15° ESE 19:25:13 23° ENE 19:29:07 10° NNE visible
02 Oct 3.8 21:02:50 40° SW 21:03:55 47° W 21:08:50 10° NNW visible
03 Oct 2.8 20:25:52 51° SSE 20:27:10 80° ENE 20:32:16 10° N visible
03 Oct 5.7 22:06:04 12° W 22:06:47 12° W 22:08:48 10° WNW visible
04 Oct 3.5 19:48:53 29° ESE 19:50:36 37° ENE 19:55:15 10° N visible
04 Oct 4.7 21:29:06 27° WSW 21:29:41 27° W 21:33:59 10° NW visible
05 Oct 4.4 19:11:55 14° E 19:14:15 19° ENE 19:17:41 10° NNE visible
05 Oct 3.4 20:52:08 54° SW 20:52:47 59° W 20:57:49 10° NNW visible
